Theta_e
319 313 309 310 311 313 314 313 314 314 314 314 313 313 313 313 313 316 317 325 328 321 318 320 320 323 326 332 335 336 337 338 337 336 337 337 338 339 341 342 344 346 345 352 357 358 358 358 361 362 360 360 361 362 362 363 363 364 363 363 361 360 362 362 361 364 363 359 358 359 359 357 357 360 361 361 362 362 365 367 359 358 358 358 356 356
316 311 310 313 313 314 314 315 314 314 313 313 313 311 312 313 312 316 320 327 328 320 320 325 323 324 327 331 334 338 335 333 334 335 336 336 338 339 340 340 343 346 348 354 357 356 358 357 359 359 360 361 359 361 362 361 361 362 363 362 362 361 363 363 366 366 364 362 359 358 358 355 352 352 357 356 356 357 357 361 365 363 362 365 363 361
311 309 313 314 316 317 316 315 314 314 312 312 311 311 310 311 316 318 320 325 326 321 318 326 323 325 329 332 336 336 332 333 334 336 336 337 337 339 339 341 343 345 348 351 352 356 356 358 358 359 359 360 360 361 362 363 362 363 363 363 363 362 365 362 365 365 364 364 363 359 361 357 352 356 360 349 349 355 357 360 363 362 361 361 362 363
306 309 314 316 316 314 314 314 313 313 313 312 311 310 308 312 312 310 320 323 326 319 318 326 321 328 333 337 335 337 333 338 341 340 340 341 340 339 339 341 343 343 348 349 351 350 353 356 359 359 359 359 359 359 359 361 361 364 363 365 363 364 366 364 364 367 364 358 363 364 360 359 350 348 349 351 348 348 349 348 359 361 360 359 358 358
309 312 317 316 315 315 312 313 313 313 311 312 312 311 310 311 313 312 318 322 325 323 326 325 321 325 329 326 330 336 340 338 338 341 342 343 343 344 342 341 344 343 346 348 349 348 351 354 354 357 358 358 357 357 356 357 361 363 362 364 363 363 363 362 364 365 363 357 349 350 350 347 348 346 346 347 342 345 346 345 347 350 353 354 356 356
311 315 317 314 313 315 313 312 312 311 310 311 312 312 312 312 312 314 322 322 317 317 322 321 310 311 323 324 322 329 335 334 336 335 337 341 342 345 344 346 347 347 346 348 349 350 350 352 355 357 358 357 356 357 358 360 361 363 364 365 364 361 359 358 358 356 350 350 348 346 341 339 340 339 339 340 339 339 342 342 346 349 350 354 355 353
314 315 315 313 313 314 312 312 313 313 311 310 311 314 313 314 314 316 320 316 308 307 318 323 308 304 316 321 324 327 328 330 335 336 334 338 341 341 343 344 346 347 348 350 349 350 350 352 354 356 356 357 356 357 360 363 364 365 363 362 361 358 357 357 355 353 351 348 347 346 343 341 340 337 340 344 344 344 344 345 345 346 348 356 353 353
314 313 313 314 313 312 312 311 313 313 311 309 314 316 314 314 316 318 317 313 311 315 322 322 318 307 307 317 326 329 328 328 330 334 335 334 339 338 340 342 346 346 347 349 350 351 351 353 354 354 357 357 355 359 362 361 361 362 362 360 358 357 354 354 356 353 350 347 346 345 343 343 342 341 341 342 345 346 344 343 344 346 346 351 353 352
314 312 312 311 312 312 311 313 316 316 312 313 317 317 316 317 318 316 315 313 316 315 314 319 320 310 306 314 323 328 325 326 327 331 334 336 338 339 340 340 344 347 348 348 348 350 351 353 354 356 356 356 357 359 357 359 360 361 360 357 355 353 352 352 351 352 352 350 347 347 345 344 344 343 342 339 343 343 346 344 345 346 346 347 350 352
314 314 315 314 313 311 316 315 315 315 312 316 323 324 323 321 318 316 314 314 314 310 305 311 316 305 305 314 321 326 324 325 327 331 332 335 338 339 338 340 342 347 350 349 349 350 351 354 355 355 355 357 356 357 359 359 359 357 355 352 351 350 349 351 351 354 351 350 349 347 347 343 343 343 343 342 342 344 344 344 344 345 345 344 345 347
314 318 321 315 313 316 314 314 314 314 317 322 321 319 319 318 318 317 315 314 311 304 306 310 313 309 302 310 313 318 321 325 327 330 333 335 338 341 342 341 342 345 350 350 349 350 352 354 356 356 354 357 357 356 356 355 354 352 351 350 349 349 348 351 351 350 350 348 346 345 343 342 341 340 340 338 339 341 342 342 343 343 343 344 343 345
314 315 315 317 315 316 317 314 315 317 320 319 315 314 315 314 316 314 312 314 304 301 310 311 311 312 301 306 313 320 324 326 325 326 331 332 335 339 342 341 342 346 349 350 350 348 351 353 357 357 354 356 355 353 351 352 351 350 350 349 346 347 350 353 350 350 346 344 347 345 343 342 342 342 340 339 338 340 340 341 340 341 343 343 343 344
311 313 316 314 317 316 314 313 314 315 318 315 314 312 306 304 306 301 306 301 300 300 310 311 312 309 308 311 314 317 319 328 329 328 329 334 335 339 342 343 343 346 348 349 350 350 350 353 353 353 354 355 352 350 351 350 345 347 347 346 346 349 352 349 349 347 345 345 344 343 343 343 344 342 340 340 339 340 339 340 340 340 340 341 341 342
310 313 312 313 315 318 315 310 309 308 313 312 310 309 304 301 299 296 300 302 303 308 311 309 316 306 310 313 319 318 320 324 332 330 331 334 338 340 344 345 343 345 346 346 348 349 350 353 353 354 355 353 351 350 350 348 346 347 345 345 345 347 347 346 344 341 338 340 341 342 342 343 343 341 340 340 338 338 340 340 340 341 340 340 340 340
303 303 310 311 309 316 315 314 313 312 311 311 313 311 307 306 301 297 300 298 300 303 308 313 306 303 304 310 322 328 328 332 332 334 334 336 338 341 343 344 344 345 348 347 348 349 351 353 354 354 354 352 351 348 348 348 348 346 344 345 344 345 345 345 343 343 341 340 341 341 342 343 343 340 339 340 339 341 340 340 341 342 341 340 341 340
306 306 312 315 315 316 314 316 316 314 313 314 313 313 309 307 311 302 306 305 304 304 305 307 305 310 310 327 327 327 328 330 329 332 335 337 339 340 341 342 341 344 345 346 347 349 352 355 354 352 354 352 350 350 348 349 348 344 344 346 346 345 346 345 344 344 341 341 342 343 342 341 340 340 340 340 340 341 341 341 341 341 341 341 341 341
309 306 313 315 316 314 315 316 315 316 305 311 311 307 310 315 312 308 307 306 306 304 301 311 308 310 315 315 316 320 324 325 329 330 330 332 335 338 341 342 343 344 345 345 346 348 352 353 354 351 352 349 347 347 347 350 348 346 346 346 346 346 346 346 346 345 345 344 342 342 342 340 339 339 338 336 336 338 341 343 342 341 340 342 341 340
307 307 313 312 311 314 316 316 316 314 317 313 306 311 315 316 314 309 302 305 302 299 303 307 304 306 307 303 318 321 318 319 324 330 329 331 334 336 339 343 344 345 345 347 350 351 351 351 352 349 348 348 346 347 349 351 349 347 347 345 346 346 345 347 346 346 345 344 342 341 342 342 340 338 338 338 337 338 340 341 341 341 339 339 340 339
313 305 310 313 314 313 316 315 312 315 316 313 312 318 308 303 302 309 306 299 300 299 301 305 306 306 307 308 312 315 316 317 322 331 331 330 332 335 339 343 347 347 345 345 345 347 348 349 348 347 344 344 346 349 351 351 348 346 346 346 345 345 345 346 345 345 346 344 341 341 340 339 340 341 339 338 339 340 340 340 340 340 339 339 340 340
312 305 307 313 313 314 314 313 306 310 314 314 316 313 314 312 309 306 307 307 305 298 299 300 304 301 311 311 313 312 315 317 318 328 331 331 332 334 339 342 345 347 345 343 345 348 348 346 344 341 341 341 345 348 349 346 343 341 344 347 346 345 347 347 346 346 345 344 343 342 342 341 340 340 339 339 338 337 337 338 339 339 338 339 339 339
310 314 304 310 315 313 307 311 309 311 309 309 310 310 311 310 314 312 311 307 304 301 300 299 298 305 312 316 314 315 316 318 319 324 334 333 334 336 340 342 345 347 344 343 344 346 346 342 339 340 342 343 346 349 345 341 340 339 341 344 344 345 344 344 344 343 344 343 343 342 341 340 340 340 339 338 338 338 338 339 339 338 339 341 340 340
311 310 304 308 308 307 309 315 314 314 314 312 310 309 311 309 306 303 303 310 308 303 298 300 298 307 315 320 320 316 318 319 321 324 329 334 335 339 341 343 346 346 345 344 343 343 343 342 341 340 342 343 345 344 340 340 340 337 338 339 340 338 339 340 341 343 345 344 342 341 340 340 339 339 339 337 337 338 339 339 338 339 340 338 339 340
315 313 308 306 308 308 311 315 317 316 315 315 313 312 314 312 311 307 298 304 307 308 307 306 302 305 319 321 321 321 324 322 327 328 329 332 337 339 342 344 347 349 346 344 343 343 343 343 342 342 344 345 346 344 342 341 338 338 340 338 339 339 337 335 337 342 345 343 341 342 341 341 340 339 338 337 336 335 334 333 336 337 338 337 337 339
321 312 306 306 314 313 314 316 315 314 315 313 314 315 314 311 312 310 308 310 306 307 303 304 302 305 323 331 329 329 333 331 333 334 337 333 335 339 343 344 347 348 348 344 345 344 344 345 345 346 347 348 348 345 342 341 341 340 340 338 338 338 338 338 338 338 343 343 341 342 341 341 340 338 335 334 335 334 334 333 335 336 335 336 337 337
308 312 308 304 305 306 310 312 312 314 313 312 311 313 314 314 313 312 313 314 306 307 307 303 299 305 323 329 326 329 325 322 323 328 335 336 337 339 343 345 347 350 350 348 346 346 347 347 347 349 350 351 349 347 347 347 346 343 343 339 336 337 338 341 342 340 340 340 340 340 341 340 339 337 336 335 333 334 333 332 332 334 335 336 337 339
310 312 309 302 298 296 297 297 300 305 308 311 312 312 313 312 312 311 306 309 300 309 310 304 304 310 318 325 322 324 322 325 324 325 328 337 340 340 343 345 348 350 351 350 349 348 347 349 351 351 351 351 350 348 350 351 349 347 346 344 339 337 338 339 341 340 339 337 338 340 340 339 338 336 335 335 334 334 335 335 335 334 332 333 331 333
311 315 312 308 305 303 306 309 312 313 312 307 309 312 312 313 313 313 311 308 303 311 308 306 309 309 312 316 317 318 319 319 319 323 329 334 337 342 346 348 349 350 352 349 349 348 350 352 352 351 351 350 348 349 351 350 348 346 347 347 341 340 341 343 343 343 340 337 336 338 339 338 337 336 335 335 335 336 334 334 332 332 332 332 331 331
318 311 313 313 313 311 312 315 314 313 310 310 309 310 312 312 312 311 309 306 317 309 301 312 316 311 311 315 317 318 320 321 322 324 324 333 339 340 343 347 347 349 351 350 349 348 349 351 351 351 351 350 349 350 349 349 347 347 349 346 342 341 340 339 343 343 341 339 339 340 338 338 337 336 336 336 337 336 335 335 335 335 335 333 331 329
313 308 312 311 311 314 313 313 313 312 312 312 312 311 311 311 312 310 312 312 317 307 304 314 318 314 314 315 317 319 320 321 319 321 325 329 336 342 342 343 344 345 347 347 348 349 349 349 351 351 350 350 350 349 348 346 347 348 350 344 344 340 341 343 343 343 340 340 340 341 340 339 338 337 337 336 337 336 336 336 336 335 334 333 331 331
319 310 315 313 311 312 312 312 313 311 311 311 311 312 312 311 311 311 311 312 313 314 314 313 318 317 316 317 318 320 322 321 322 328 328 328 327 335 339 341 341 343 344 345 347 348 349 350 351 352 352 351 349 349 347 347 349 348 346 342 341 343 341 342 344 343 341 339 340 341 340 339 339 338 337 336 336 337 337 334 334 333 333 332 331 332
316 315 313 312 311 310 311 312 312 311 311 309 310 312 312 312 312 312 312 312 315 314 314 314 315 314 318 321 323 323 322 322 324 322 320 325 328 331 336 337 340 340 342 345 347 347 349 350 351 352 351 351 350 349 347 348 348 347 338 337 338 341 342 342 344 343 341 341 342 341 340 339 338 338 336 337 336 336 337 336 334 333 332 332 333 332
314 318 316 313 307 309 310 310 310 312 311 310 310 311 311 310 309 311 311 315 314 312 315 314 311 310 316 320 322 323 322 322 319 320 321 328 331 331 332 336 338 340 341 343 345 346 348 348 349 350 350 349 349 346 346 346 343 342 337 337 337 337 340 342 343 341 341 342 342 341 339 337 337 337 335 335 336 337 337 335 334 333 333 332 331 332
314 316 311 311 306 307 310 311 310 309 309 307 308 311 312 312 313 313 315 316 315 314 311 308 309 316 318 319 317 317 317 318 321 325 329 331 334 333 333 335 338 340 341 343 344 345 346 346 348 349 348 349 346 343 343 346 338 341 340 339 340 341 339 341 341 340 340 341 340 340 338 338 337 336 336 336 336 337 336 335 333 332 331 329 331 331
320 316 311 312 305 308 309 310 311 307 300 302 316 316 315 312 312 311 311 314 316 316 312 314 314 317 317 316 316 318 318 320 325 330 336 331 329 335 335 335 337 340 341 342 344 345 347 347 348 348 349 349 345 338 338 340 338 341 340 338 341 341 342 342 340 338 339 340 339 339 338 336 336 335 335 336 336 336 336 334 332 331 330 330 331 331
314 315 311 315 308 306 311 311 304 299 301 319 319 319 318 316 315 313 314 315 315 317 316 315 315 317 318 318 319 320 324 329 330 332 331 333 333 331 333 335 337 339 341 342 343 344 347 348 350 349 349 344 337 337 338 337 340 343 338 338 337 340 343 342 338 338 338 337 337 337 338 336 336 336 337 337 337 338 337 333 332 331 330 328 328 329
314 312 315 311 310 311 307 305 297 300 316 315 317 318 320 318 316 315 313 314 316 315 318 316 317 317 318 318 319 325 330 329 329 334 335 336 334 334 332 333 336 337 339 342 344 345 348 348 349 349 346 341 338 336 336 337 338 336 335 337 336 339 340 339 338 336 337 336 336 336 336 336 336 336 339 337 337 336 334 331 331 330 330 331 330 331
317 316 313 308 314 304 305 304 303 313 311 313 312 315 315 313 313 312 307 311 317 318 318 317 317 317 317 318 321 328 329 327 327 328 335 334 335 334 334 335 334 337 340 343 343 346 351 350 350 351 352 349 340 339 337 338 338 336 335 334 335 337 336 335 336 336 336 335 334 334 335 336 335 335 336 336 335 335 332 330 329 329 331 331 330 327
322 316 315 307 307 310 305 302 303 302 300 306 315 318 319 318 318 317 314 310 318 318 319 317 317 317 318 318 327 328 329 323 314 324 328 330 332 333 335 336 336 339 341 341 346 349 351 351 350 354 345 339 342 340 339 339 337 337 336 335 335 333 333 333 334 335 335 333 335 335 337 337 337 335 334 335 334 334 331 330 330 330 332 329 327 326
319 321 321 310 308 308 305 302 300 299 303 311 314 318 320 321 317 318 311 306 316 318 319 317 316 317 318 318 330 330 321 312 312 320 328 332 332 333 334 336 336 338 341 343 344 347 348 350 351 347 347 344 341 341 344 343 338 337 338 336 333 331 331 332 334 334 332 333 335 337 337 336 335 334 333 334 333 333 330 330 330 330 333 331 329 329
313 312 313 309 307 307 306 302 300 305 304 313 317 317 318 319 319 314 301 303 316 318 318 319 316 316 319 321 327 327 317 310 313 322 329 333 334 334 338 339 340 340 342 345 347 350 351 351 352 345 338 343 346 347 349 347 338 337 335 334 332 330 330 333 335 335 335 334 335 337 338 337 336 336 335 334 334 335 334 333 331 331 330 329 328 328
310 310 310 305 305 304 304 303 305 307 316 319 317 317 318 318 315 305 298 308 318 319 318 319 318 318 321 326 327 316 322 325 330 332 334 333 333 335 338 340 341 342 343 343 344 348 347 349 351 346 347 346 350 349 350 346 342 338 338 338 336 333 332 335 336 335 334 335 337 336 336 336 335 334 334 332 335 337 334 332 330 330 333 331 328 330
309 310 308 310 305 304 305 303 303 307 314 316 318 317 318 313 303 302 319 324 320 319 321 319 318 320 321 324 326 321 324 332 332 332 334 333 336 337 337 338 339 341 342 344 346 346 348 345 348 346 339 350 350 347 349 351 347 344 343 340 337 337 334 336 336 335 337 342 340 336 335 335 336 335 333 333 338 336 333 333 333 331 329 331 333 331
308 306 304 304 307 306 307 304 300 296 315 316 316 315 316 309 310 321 325 326 321 323 320 321 320 321 323 324 329 331 328 327 330 332 333 336 337 337 338 338 340 339 339 342 344 344 344 345 345 341 335 335 335 347 350 349 347 345 344 343 343 338 336 337 339 345 344 340 336 336 336 335 335 335 335 339 337 334 332 334 332 332 332 332 332 331
318 306 305 307 311 304 304 301 300 312 315 318 317 312 317 317 328 329 326 320 324 322 323 323 325 328 333 332 331 332 331 334 335 337 337 337 336 337 339 341 342 341 340 339 340 343 340 345 345 344 339 333 343 348 347 347 346 345 344 345 346 345 345 348 348 343 336 335 335 333 332 332 334 336 338 337 336 334 332 331 332 331 331 332 330 329
319 313 316 307 314 308 306 309 317 320 320 319 321 321 321 324 324 325 326 324 323 322 326 327 327 329 337 335 336 333 332 334 336 338 337 337 336 337 339 340 340 340 339 336 333 341 341 341 345 344 345 346 348 347 347 346 344 343 343 346 348 349 348 346 342 336 334 333 332 333 333 333 334 335 335 335 334 332 330 330 330 329 331 330 327 328
313 317 319 316 312 318 318 319 318 318 319 319 319 322 320 321 322 323 324 324 325 325 326 324 327 329 336 336 333 332 331 335 336 336 336 338 338 340 341 341 341 341 340 341 343 343 342 342 342 344 344 345 344 345 346 345 344 342 344 346 348 349 344 342 337 334 333 331 331 331 333 332 331 332 334 333 331 331 330 330 328 327 328 328 326 327
314 314 315 310 315 307 304 316 316 315 318 319 319 321 321 321 322 324 327 328 329 330 329 331 332 333 335 335 334 331 331 336 337 339 340 341 341 341 340 340 341 340 340 339 341 340 339 339 337 338 339 340 344 342 339 341 341 342 345 347 348 342 341 338 335 333 332 331 330 333 333 329 326 326 329 332 331 329 328 328 327 327 327 326 324 325
310 316 313 312 312 308 308 316 316 316 319 320 319 317 317 318 321 324 325 329 331 332 333 333 334 334 335 333 334 333 333 333 334 339 339 339 339 339 340 341 341 341 343 344 342 339 338 337 336 335 336 338 341 342 340 337 339 341 342 342 337 335 336 336 333 332 331 331 330 331 331 328 324 325 326 327 327 325 326 330 329 327 324 325 325 326
313 313 307 312 309 312 314 316 315 317 317 319 318 319 317 316 319 323 325 327 329 328 330 332 333 334 334 332 334 334 331 334 335 332 328 333 336 335 336 336 339 339 339 338 339 341 343 342 340 342 339 340 341 340 337 337 337 336 341 336 335 338 335 333 331 331 330 330 328 329 327 327 329 328 327 327 329 327 326 329 326 324 326 331 328 327
312 309 313 310 307 307 308 311 314 309 310 316 317 316 316 318 321 324 325 325 327 328 330 331 332 334 332 334 336 333 334 334 332 330 326 329 333 336 339 341 340 340 341 343 344 345 343 341 342 340 340 340 337 337 337 338 337 335 333 335 337 337 336 335 332 329 326 328 326 325 326 328 327 327 326 324 323 324 326 309 300 308 325 324 309 303
311 313 312 308 308 307 310 314 317 315 315 316 316 316 317 320 322 322 324 324 326 329 330 332 331 331 332 332 332 330 333 333 336 334 328 330 337 340 340 339 338 338 337 340 340 340 340 340 338 339 338 338 336 335 335 334 334 335 332 335 335 334 336 333 330 326 324 326 325 325 326 325 324 326 328 327 326 325 324 325 317 299 298 305 307 300
Wind_Speed
5 11 11 11 11 12 13 14 13 8 7 11 13 12 11 11 11 7 5 6 9 6 7 6 4 9 11 12 11 11 10 8 8 10 8 8 8 9 9 9 9 8 8 8 8 8 8 8 7 7 6 6 6 6 6 6 6 6 5 5 5 4 4 3 3 1 1 3 3 5 6 5 4 3 3 3 3 4 3 1 7 6 5 7 7 7
7 12 12 13 13 14 14 9 4 3 4 9 9 10 9 9 9 12 9 7 8 8 6 6 7 9 11 11 11 10 11 11 10 10 10 10 9 8 9 9 9 8 6 7 7 7 8 7 8 7 7 6 7 6 6 6 5 5 5 5 4 4 3 2 1 1 3 4 4 4 5 5 4 4 4 4 5 5 4 3 1 6 6 6 6 5
10 13 11 15 5 5 4 8 9 8 9 10 10 10 9 9 4 7 7 8 7 8 4 7 8 8 10 10 10 10 10 9 10 9 9 10 10 9 9 9 9 8 7 7 7 7 7 8 8 7 6 6 7 7 7 5 5 5 4 4 3 3 2 0 1 3 5 5 4 6 5 3 4 3 3 6 6 5 6 6 4 3 4 4 4 5
12 11 16 10 7 8 7 7 10 9 9 9 10 8 9 7 9 9 8 9 8 8 6 8 9 7 8 7 10 9 9 8 7 8 7 7 10 10 11 10 9 9 8 8 7 8 7 8 7 7 7 6 6 5 5 5 4 3 3 3 3 2 2 3 4 1 3 3 8 7 6 4 4 6 6 5 6 6 6 6 4 5 5 6 6 6
11 11 8 9 9 11 12 10 11 9 9 9 9 8 9 10 12 10 9 10 8 7 7 8 9 7 8 10 9 9 7 8 10 9 8 8 8 8 9 9 9 10 9 8 8 7 8 8 8 8 7 7 7 6 5 4 3 2 3 4 3 2 2 3 3 3 3 3 3 2 6 6 5 5 6 5 5 6 5 6 6 6 6 5 6 6
8 10 11 9 11 11 12 12 13 12 11 10 11 11 10 7 10 10 12 12 8 8 10 11 8 7 8 11 12 10 9 10 10 11 11 11 10 8 9 9 9 8 9 8 8 8 9 9 8 8 8 7 6 5 4 3 4 4 5 5 4 3 2 3 4 5 3 3 4 4 5 5 5 5 5 5 6 6 5 6 6 6 6 7 7 7
5 8 7 11 12 13 14 13 15 13 9 9 8 13 6 7 6 8 15 10 10 9 9 11 9 7 8 12 13 12 13 13 11 12 13 12 11 11 11 10 10 11 10 9 9 10 10 10 9 9 8 8 7 6 5 5 5 6 6 6 5 4 4 4 4 4 3 3 3 4 3 3 3 4 3 4 4 4 5 5 6 5 6 6 7 7
5 9 7 7 12 14 13 12 10 12 9 6 5 3 4 7 9 10 12 11 4 2 5 12 8 8 6 8 12 14 14 15 14 14 14 13 13 14 13 13 12 12 11 11 10 10 11 11 10 10 9 8 8 8 7 6 6 7 7 7 6 5 5 4 4 4 3 2 2 2 2 1 3 3 3 3 3 3 4 5 6 6 5 6 6 7
13 11 11 12 12 11 12 8 11 10 6 6 4 6 7 7 7 10 9 7 3 6 6 7 8 9 8 3 8 14 14 15 17 16 16 16 15 15 15 14 14 13 12 12 11 12 12 12 10 10 10 9 8 8 8 7 7 7 7 7 6 6 5 4 4 3 4 3 2 2 2 2 2 3 3 4 3 4 4 5 5 5 6 5 5 6
5 9 12 12 11 10 8 8 9 3 5 3 7 8 7 4 5 4 5 4 4 7 10 9 8 9 9 7 5 10 13 15 17 18 18 18 17 16 16 16 15 14 12 13 13 13 13 12 11 10 10 10 8 8 8 9 8 8 7 7 6 5 3 4 3 3 3 3 2 2 2 3 3 3 3 4 3 3 4 4 5 4 4 5 5 5
6 3 4 6 5 7 12 10 5 3 8 12 9 9 8 6 4 2 1 3 4 9 9 9 11 10 9 6 9 10 11 14 14 14 15 17 18 17 17 17 15 14 13 12 13 13 13 13 11 11 11 11 9 9 9 8 8 8 7 6 6 5 4 4 3 3 3 2 2 2 3 4 4 4 4 4 4 4 5 4 5 4 4 4 4 5
7 6 8 3 2 9 13 11 7 8 13 12 8 8 7 5 4 5 5 4 8 8 4 3 6 10 12 8 6 8 10 12 12 13 16 19 20 18 17 16 17 16 14 13 13 14 14 12 11 12 12 12 11 10 10 9 9 8 7 6 6 6 5 4 3 2 1 1 2 3 3 4 4 4 4 4 4 4 5 5 5 5 4 4 4 4
11 10 7 9 3 12 12 10 6 8 10 8 8 9 7 5 6 7 5 9 8 7 5 1 5 8 12 11 14 9 4 8 8 9 12 17 19 19 19 18 16 15 15 14 13 13 14 13 14 14 13 12 12 11 11 10 9 8 7 7 7 7 6 4 3 2 1 1 2 2 3 3 3 3 4 3 4 4 4 4 5 5 5 4 5 4
10 8 10 9 6 7 12 10 8 8 9 9 9 9 8 6 8 6 8 7 7 6 5 0 3 10 9 9 11 13 11 9 9 8 8 10 16 18 18 17 16 15 15 14 14 14 14 14 14 14 13 12 11 12 11 10 9 8 7 7 6 6 5 4 3 2 1 1 1 1 2 2 2 2 3 2 3 3 3 3 4 4 4 4 4 5
11 10 10 13 9 11 12 10 12 8 11 11 9 9 10 7 6 8 7 8 10 2 5 5 4 4 9 3 4 4 5 3 3 7 7 7 8 13 17 17 18 17 16 14 13 14 15 15 15 14 13 12 11 12 12 10 9 8 7 7 6 6 5 3 3 2 1 0 0 0 0 1 1 2 1 2 2 3 3 3 4 4 4 4 4 4
13 9 13 8 2 17 14 3 9 10 9 7 5 3 7 10 5 8 6 5 6 3 7 7 7 4 6 5 5 2 3 3 4 7 8 9 7 9 13 17 18 17 16 15 15 15 16 15 14 13 13 12 12 13 11 11 10 9 8 8 7 6 5 5 4 3 1 1 1 1 1 1 1 1 1 1 1 2 3 4 4 4 4 4 4 4
4 6 13 10 6 13 13 7 6 5 9 9 7 10 2 6 4 1 4 2 5 5 10 5 7 9 6 10 10 6 6 7 8 9 10 10 11 10 12 15 17 17 16 15 15 15 16 15 14 13 14 13 13 13 12 11 10 10 9 8 8 6 5 5 4 3 2 1 1 1 1 1 1 1 2 2 3 3 3 4 4 4 4 4 4 4
8 7 11 11 11 3 3 7 6 3 4 7 9 6 7 4 4 5 6 5 7 7 2 4 8 8 5 2 6 6 7 6 7 10 11 11 11 13 12 13 15 17 17 16 15 15 16 15 15 14 14 15 15 14 13 12 11 10 9 8 7 6 6 5 4 3 2 2 2 1 2 1 1 2 2 2 3 3 4 4 4 4 4 4 4 5
10 8 8 9 9 7 7 8 8 3 4 4 7 13 11 8 11 7 6 8 7 7 7 7 6 8 6 5 7 8 6 4 6 8 9 11 13 13 13 13 14 15 15 15 16 15 15 14 15 14 15 16 15 13 13 12 11 10 9 8 6 6 5 5 3 2 2 2 2 2 1 2 2 2 2 2 3 4 4 5 5 5 5 5 5 5
9 9 8 5 9 9 10 10 12 10 7 3 2 8 4 7 4 8 6 7 3 10 4 4 6 7 9 4 3 4 2 4 3 6 9 11 14 13 13 14 15 16 16 16 16 15 15 16 16 17 16 16 15 14 13 13 11 11 9 8 7 5 5 4 4 3 3 3 3 2 2 2 3 3 3 3 4 4 4 4 4 5 5 5 5 5
7 9 5 7 6 11 11 10 12 11 11 11 9 8 8 6 3 5 1 6 6 7 6 7 6 5 5 4 1 2 3 3 5 6 7 8 10 13 13 13 14 16 16 16 16 16 16 16 17 16 15 15 14 13 13 12 12 10 8 8 7 7 6 6 5 4 4 3 3 4 4 3 4 4 4 4 4 5 4 4 4 4 5 5 5 5
9 8 9 9 9 8 11 13 5 5 13 12 12 11 10 9 8 8 8 5 5 5 4 4 7 7 4 4 4 4 3 4 4 5 5 7 9 11 12 14 14 14 16 17 17 17 17 16 16 16 15 14 14 15 14 11 10 9 9 8 8 7 6 6 5 5 4 4 4 4 4 4 4 4 4 5 5 5 5 5 5 4 5 6 5 5
11 6 11 9 10 11 4 7 1 3 2 5 12 12 12 11 9 8 9 5 5 5 5 6 7 7 7 6 5 2 1 3 2 4 5 5 7 10 12 14 15 15 17 18 18 17 16 16 16 15 16 15 15 14 13 11 10 9 9 8 7 7 6 6 5 5 4 5 5 5 5 5 5 5 5 6 6 6 5 6 5 4 5 6 7 6
1 7 10 10 4 8 6 3 3 1 4 7 10 9 8 12 10 10 8 3 6 4 6 5 8 5 7 4 3 3 1 3 3 4 5 5 6 9 12 13 14 14 15 17 16 15 15 16 15 14 15 14 13 12 13 11 10 9 9 8 8 8 7 6 5 5 6 6 6 6 6 6 6 6 6 6 5 5 5 6 6 5 5 6 7 7
11 9 11 8 7 8 5 5 6 5 7 10 10 12 13 10 9 4 4 5 9 6 9 7 8 7 8 1 2 3 4 6 6 6 4 6 5 8 10 12 13 14 13 15 16 16 16 17 17 15 14 13 12 12 11 11 11 10 9 9 8 7 6 6 6 6 5 6 7 7 6 6 6 6 6 6 6 6 6 7 7 7 8 7 7 8
12 9 11 12 13 13 12 12 12 11 12 11 13 11 13 14 11 9 9 6 8 5 8 7 8 7 6 2 5 4 5 5 5 5 5 5 6 5 7 10 12 13 14 16 16 17 19 17 16 15 14 12 12 12 11 11 11 10 9 9 8 7 6 6 6 6 6 6 6 6 7 7 6 6 6 6 6 6 6 6 7 7 7 7 9 9
7 6 12 12 12 12 11 10 10 12 11 14 16 16 16 17 16 13 10 6 9 4 8 7 12 12 6 6 5 2 4 6 8 7 8 7 7 6 6 8 10 11 12 15 16 14 14 14 17 17 15 14 14 13 11 11 11 10 9 9 9 7 6 6 7 6 7 7 7 6 6 6 6 6 6 5 6 6 7 8 8 9 9 9 10 10
3 8 12 14 14 14 5 2 7 15 15 16 16 17 17 16 15 15 11 11 4 4 11 3 5 12 13 11 9 7 7 7 7 8 7 7 6 8 9 9 10 11 11 12 13 16 17 15 15 16 16 15 14 13 11 11 10 10 10 10 9 8 7 6 7 7 7 7 7 7 7 6 6 6 5 6 6 7 8 8 8 8 9 10 10 10
8 10 13 15 17 9 4 6 6 9 12 13 15 14 17 17 16 17 15 12 6 10 11 2 4 8 10 12 11 9 8 9 10 10 9 7 5 7 9 11 12 12 13 14 15 15 16 16 15 16 16 14 14 14 12 10 10 9 9 9 8 8 8 7 7 8 8 7 7 7 7 6 6 5 6 6 6 7 8 8 8 9 9 9 10 9
5 10 4 12 10 9 6 7 7 11 9 12 14 14 15 16 17 17 16 12 11 12 11 6 4 8 13 14 12 11 8 9 9 7 8 9 10 9 10 11 12 13 14 15 16 16 15 16 16 16 16 14 15 13 12 10 10 10 10 10 9 9 8 7 9 9 8 8 8 7 7 6 6 6 6 6 7 8 9 8 8 8 8 9 10 10
7 3 2 7 9 7 6 6 9 10 10 12 11 12 13 13 14 14 12 6 7 8 8 8 9 11 11 10 7 5 5 6 7 10 13 12 9 9 11 12 13 14 15 15 15 16 16 16 16 16 16 15 15 14 11 10 10 9 11 10 10 9 8 9 9 9 8 8 8 8 7 6 7 7 7 7 7 8 9 9 9 8 8 9 9 9
9 2 4 7 10 7 6 8 8 9 11 11 11 11 11 13 12 9 9 7 9 8 6 8 10 10 8 5 1 6 8 10 12 13 12 8 8 8 11 12 12 13 14 15 16 16 16 17 17 17 17 16 15 14 11 10 10 11 11 10 9 8 9 10 10 9 9 9 8 8 7 7 8 8 8 8 8 9 9 8 9 8 9 9 9 8
9 5 7 8 10 9 8 7 10 10 10 10 12 12 13 12 10 9 8 7 9 7 8 9 9 6 6 7 11 11 11 11 11 10 8 7 7 8 10 10 11 12 13 14 15 17 18 19 18 18 17 15 14 13 13 12 12 12 11 10 9 8 9 10 10 9 9 9 8 8 7 8 8 8 8 8 9 9 9 8 9 9 9 9 8 8
6 9 8 7 9 4 11 9 9 9 12 10 3 10 13 11 10 10 10 9 8 7 7 7 8 7 8 9 9 9 10 10 9 7 5 6 6 7 9 9 10 10 11 14 15 17 17 16 16 16 16 15 15 14 13 12 12 11 11 10 9 10 10 10 9 9 9 8 8 8 8 8 8 8 9 9 9 9 9 8 9 9 9 8 7 7
9 8 8 4 9 8 6 7 9 13 10 4 3 4 2 7 11 10 9 8 8 9 10 10 9 9 8 9 9 9 8 8 8 9 9 7 7 7 8 8 8 9 11 12 14 15 15 16 16 16 15 16 15 13 13 12 12 11 11 10 10 11 11 10 9 9 9 9 8 8 8 8 8 8 8 8 8 8 8 8 8 7 7 8 8 8
7 10 5 8 6 3 8 10 11 9 4 5 5 6 6 2 2 7 8 8 9 8 9 10 9 9 8 8 7 4 5 7 9 9 9 9 9 8 7 6 7 8 10 10 13 13 14 15 15 16 15 13 14 14 13 13 13 12 11 11 12 11 10 10 10 10 9 9 8 8 8 8 8 8 8 8 8 8 8 8 7 8 7 7 7 7
7 6 8 8 5 10 9 11 11 6 5 5 4 5 7 6 8 8 9 8 7 8 8 7 8 8 8 6 3 2 2 5 8 7 6 6 6 7 6 5 5 7 8 9 11 13 14 14 14 15 13 13 13 13 13 12 13 12 11 12 12 11 11 10 10 10 9 9 8 8 8 7 8 8 8 8 8 8 7 7 8 8 7 7 8 8
5 9 6 9 6 9 11 11 11 12 13 9 7 9 9 5 6 5 5 7 6 9 7 5 6 5 7 4 3 2 1 4 9 3 4 4 5 5 5 4 4 5 7 9 10 11 13 13 13 13 13 15 14 14 13 13 13 12 12 12 12 11 11 11 11 10 9 8 8 8 7 7 7 8 8 8 8 8 7 7 7 7 6 7 9 10
7 6 3 11 8 8 12 12 11 12 10 8 9 5 7 3 5 7 5 9 5 7 4 5 6 6 6 4 4 4 5 7 7 5 3 5 5 5 6 4 4 6 8 9 12 13 14 13 13 14 13 14 14 14 13 14 15 14 13 13 13 11 11 12 11 10 9 8 8 7 6 6 7 7 7 7 8 7 7 5 6 8 5 4 7 8
9 9 9 10 14 10 10 12 13 8 8 3 8 9 7 6 6 3 9 8 3 2 1 4 5 6 5 5 5 6 6 8 4 5 5 5 5 5 5 6 6 7 8 9 10 11 12 12 12 12 14 13 13 14 14 14 14 14 14 14 13 12 12 12 10 9 8 7 7 6 5 6 6 7 7 7 8 6 2 1 4 6 6 6 5 4
8 9 10 14 13 12 13 12 9 9 4 6 5 7 8 7 4 8 10 5 2 1 0 3 6 6 5 6 6 7 7 3 5 5 5 7 7 6 5 4 5 6 8 9 10 10 11 10 10 12 12 12 12 13 13 12 13 14 13 12 13 13 12 10 9 9 8 7 6 5 6 6 6 7 7 6 7 1 2 1 4 5 4 5 4 3
9 8 8 10 13 12 12 11 11 9 4 6 4 5 8 5 9 10 3 5 6 4 1 4 8 7 6 8 8 8 3 6 3 4 6 6 7 6 6 7 7 7 7 7 10 9 9 11 11 12 14 11 12 11 10 10 11 11 11 11 14 13 10 10 10 9 7 5 4 4 4 5 5 6 5 4 5 5 3 4 5 5 6 4 3 3
7 8 11 11 9 10 8 10 7 9 4 3 6 2 2 9 4 4 3 3 3 5 6 6 8 10 8 9 10 7 6 6 6 6 7 7 8 8 8 9 8 8 9 9 10 10 9 8 9 12 14 13 12 8 8 10 11 11 10 12 13 12 10 9 7 6 5 4 3 3 4 5 6 6 5 4 5 5 3 4 6 7 6 5 4 4
4 10 8 7 4 8 8 9 4 4 6 3 3 3 3 3 6 4 6 8 7 7 6 7 7 8 8 9 8 8 6 5 5 7 8 8 8 8 8 8 7 7 7 8 9 9 10 7 8 8 11 11 8 7 7 8 7 7 9 12 10 9 8 7 7 7 5 4 4 4 4 5 5 4 4 5 5 4 4 5 6 6 5 4 4 4
3 4 3 4 4 6 5 2 8 3 3 3 4 4 6 7 7 7 8 9 10 9 7 7 9 8 7 7 6 7 6 6 7 8 9 9 10 9 9 9 8 7 7 7 8 8 8 7 6 5 5 5 5 4 6 7 9 9 11 10 9 8 8 8 8 6 5 5 4 3 4 3 3 2 3 3 4 5 4 5 6 6 5 5 6 6
3 2 2 3 1 1 2 6 2 1 2 2 1 3 6 7 7 7 8 9 9 11 10 10 9 8 6 6 8 8 8 7 8 7 8 8 8 8 8 8 7 7 7 7 7 6 4 4 3 4 4 4 3 3 4 5 6 9 10 10 8 8 8 9 8 6 6 4 3 3 2 2 1 1 1 3 4 5 4 5 5 6 5 6 6 6
3 2 3 4 4 3 3 3 2 3 2 3 5 5 6 7 9 8 8 8 10 10 10 9 9 8 7 7 9 9 9 9 8 7 7 7 7 8 8 8 7 6 6 6 5 4 2 2 3 3 4 4 3 4 6 7 7 8 8 6 7 8 8 7 7 6 4 3 3 2 2 1 1 3 2 4 4 4 5 5 5 5 6 7 7 7
4 2 4 3 2 6 1 5 5 5 0 4 4 6 9 12 12 11 9 9 9 10 10 9 7 7 6 8 9 10 9 10 9 7 7 7 7 7 7 7 7 6 6 6 5 3 2 2 3 3 3 2 1 2 3 4 5 6 6 7 7 6 6 6 6 5 4 4 2 3 3 1 3 3 4 3 4 6 6 5 4 6 8 8 7 6
5 2 4 3 7 0 4 1 8 5 5 6 7 8 10 11 13 14 12 11 10 10 10 8 7 6 7 7 9 8 8 7 8 9 10 8 8 7 7 6 6 6 6 6 5 4 3 2 2 3 3 3 3 2 1 1 3 2 2 2 3 5 6 5 5 3 2 3 3 4 3 4 4 4 3 3 4 5 5 4 5 5 5 4 5 4
4 6 1 3 6 9 3 5 6 3 4 1 8 11 13 14 14 13 12 12 10 10 8 7 6 5 5 5 6 8 7 5 6 5 9 9 8 9 9 8 7 8 7 6 6 6 6 6 5 4 4 4 2 2 1 2 1 1 4 2 3 4 5 6 5 2 4 4 3 6 5 4 4 3 4 6 6 6 2 12 12 9 6 1 8 10
6 4 3 5 6 2 6 5 6 4 7 8 9 11 13 12 11 12 12 11 12 10 7 8 6 8 7 6 5 7 8 7 6 5 8 9 7 7 7 7 6 6 6 6 6 6 6 6 5 4 4 3 2 2 2 1 2 1 1 3 2 3 5 5 5 3 4 4 6 1 2 5 7 4 4 4 4 4 5 2 8 14 16 12 7 8
Wind_Direction
175 201 192 197 197 187 198 214 221 252 187 197 198 201 188 195 187 191 176 171 192 204 222 187 199 155 160 152 156 158 157 173 183 165 175 172 175 177 181 183 185 180 186 164 169 179 188 192 195 202 198 197 189 185 180 182 190 196 204 197 206 201 212 232 213 186 211 249 282 279 293 292 296 297 299 269 233 224 242 149 175 237 240 242 246 242
211 214 203 203 204 197 200 207 233 222 224 207 204 210 206 212 200 175 183 175 180 226 172 185 201 173 160 156 156 160 167 176 179 179 179 178 178 180 182 184 186 184 184 169 179 191 193 196 193 195 197 193 193 189 190 190 186 194 198 212 205 200 214 220 168 145 192 260 259 253 255 281 303 311 320 316 325 324 319 330 167 202 228 246 252 256
204 217 202 209 157 78 123 200 207 217 204 205 212 197 224 201 77 140 177 175 178 214 208 187 201 169 161 158 159 172 176 171 176 185 184 178 181 182 188 189 187 191 189 192 202 187 192 188 189 191 194 193 194 188 189 189 193 190 197 205 211 218 184 124 198 225 230 208 229 228 239 269 311 289 241 313 331 338 350 334 336 338 326 303 295 300
202 206 212 175 142 173 158 192 205 211 228 208 206 214 212 170 186 191 184 182 180 211 202 189 212 159 161 166 172 182 183 161 170 179 189 192 189 190 193 190 191 192 194 200 200 190 185 178 183 188 190 189 187 178 177 182 189 185 175 171 174 181 146 174 218 270 50 305 182 234 265 256 304 338 345 355 350 354 355 341 350 343 329 319 307 305
207 197 138 143 173 185 188 188 200 211 210 217 231 219 230 177 206 240 165 183 174 202 255 184 215 178 185 185 184 179 183 179 174 180 193 203 209 209 199 200 198 198 194 201 196 193 175 175 179 179 183 182 179 183 181 173 149 158 146 134 147 125 96 124 149 188 219 265 342 316 353 357 5 359 4 11 357 352 358 330 342 337 331 318 306 296
159 100 129 157 176 193 196 193 207 211 211 201 218 245 256 251 227 228 147 166 188 196 207 200 213 217 194 201 197 175 183 193 184 191 196 195 203 208 211 209 203 206 198 196 194 189 180 178 172 173 176 179 175 177 163 146 144 144 132 131 125 126 123 85 64 41 26 23 10 7 0 359 1 356 358 3 351 348 355 349 338 340 341 346 325 312
119 131 162 174 179 191 200 205 197 214 228 201 182 210 238 265 223 180 168 189 215 219 180 216 230 223 192 202 199 187 192 194 189 203 201 196 199 203 212 209 204 199 194 196 195 187 182 177 174 175 178 180 174 170 142 140 138 137 131 129 125 114 106 90 70 62 44 36 34 28 10 8 0 357 7 0 357 354 354 351 345 348 346 351 337 331
156 170 166 190 190 195 201 210 178 211 233 203 64 146 201 217 188 186 195 211 215 188 155 205 219 253 226 211 206 195 197 197 199 202 208 202 201 203 206 206 204 199 196 188 194 188 185 180 179 178 175 176 178 151 149 156 150 141 136 133 128 118 107 98 104 83 61 72 81 89 55 42 34 18 16 358 12 7 1 352 357 353 347 351 354 345
184 164 185 179 193 198 205 200 155 203 253 44 102 134 161 188 187 190 201 204 136 202 204 204 205 239 245 242 191 194 206 204 208 206 205 207 205 204 205 207 203 202 195 194 189 188 187 180 182 178 174 174 163 149 164 157 144 140 135 129 124 117 114 115 109 119 120 104 97 84 65 58 54 22 8 349 17 7 6 352 359 350 349 347 353 354
179 193 184 191 190 190 82 98 117 154 181 126 96 103 99 112 169 190 208 189 197 219 219 215 190 254 248 187 191 193 221 214 213 210 209 204 205 203 205 205 205 199 197 198 196 191 188 186 185 181 176 163 165 160 150 143 143 139 134 131 128 130 133 130 141 148 127 115 97 83 71 45 40 17 8 357 6 4 3 348 350 348 343 342 346 346
115 63 0 228 226 93 104 74 72 76 101 141 131 125 130 139 129 182 232 226 210 228 239 204 189 237 267 213 195 205 216 223 216 211 209 205 205 205 204 203 202 199 197 195 195 197 192 189 185 174 173 165 159 154 149 148 148 144 140 143 151 141 144 158 157 156 126 108 81 64 38 36 20 4 2 351 352 355 353 348 346 343 335 333 338 333
149 142 187 134 151 126 109 99 81 125 138 157 164 149 138 121 159 182 177 204 229 232 161 185 216 208 250 246 233 196 230 226 229 217 204 207 204 203 201 202 201 197 196 193 190 196 194 181 174 177 177 166 157 153 155 155 150 149 150 161 158 161 165 166 159 157 110 102 87 53 33 26 14 7 355 354 347 356 347 349 340 337 323 329 324 327
169 173 129 131 162 155 137 122 108 140 167 188 173 180 198 163 195 195 184 208 218 264 104 165 196 229 232 259 278 284 220 223 228 239 214 205 206 200 200 200 197 195 193 192 188 188 191 181 182 183 173 166 161 160 163 163 161 160 168 173 174 169 168 162 165 160 150 126 83 41 31 18 11 359 349 353 349 355 344 341 335 331 325 323 318 329
158 118 157 131 171 204 173 177 156 173 186 202 189 195 210 191 211 223 214 239 269 198 156 279 171 260 292 259 236 257 265 232 216 221 237 220 206 201 198 194 196 195 195 192 186 187 189 191 186 181 172 168 166 165 167 168 162 166 175 182 181 163 167 159 165 163 157 102 53 50 9 18 3 356 347 352 342 355 339 329 322 321 319 313 311 322
168 178 173 161 181 176 202 196 178 195 185 201 204 201 222 229 227 222 225 230 231 255 113 121 220 252 254 50 109 81 57 10 230 226 213 217 227 211 200 197 195 193 192 190 187 188 186 188 184 178 173 172 169 171 171 171 162 171 183 183 183 170 173 180 177 183 167 152 172 55 345 14 31 348 349 355 349 342 330 320 312 306 307 305 319 309
193 197 161 169 95 171 198 106 198 189 196 188 221 249 234 234 202 264 5 298 297 225 199 169 244 222 256 115 171 158 157 180 188 212 224 217 207 212 208 202 196 191 190 187 186 186 185 184 183 178 174 174 175 174 178 170 166 180 185 185 182 182 177 188 188 179 193 174 203 215 313 341 7 339 327 299 286 301 311 308 304 303 299 305 312 307
169 189 123 122 162 192 190 166 191 194 211 152 198 214 214 10 258 214 216 321 275 269 264 173 232 234 241 249 232 214 243 241 214 209 212 218 217 211 212 209 201 192 188 185 184 182 182 182 183 181 178 179 180 180 180 172 173 184 185 184 182 182 185 191 193 185 181 189 237 203 229 270 298 297 304 319 333 325 322 312 309 306 312 305 291 302
207 144 153 151 150 114 80 172 141 182 317 150 217 182 96 35 331 241 262 148 239 260 275 189 249 250 211 283 147 169 233 230 218 215 215 210 208 208 208 209 202 193 186 180 180 180 181 181 181 182 181 182 183 182 178 173 175 185 189 184 179 183 192 195 195 198 192 214 231 218 217 209 249 275 265 270 309 319 319 324 321 310 302 305 312 303
230 171 158 187 170 140 167 162 166 130 258 268 284 125 206 171 218 191 253 244 258 249 274 197 228 260 262 234 173 185 226 235 222 205 210 205 209 210 205 200 195 191 181 179 181 180 181 180 181 184 183 183 181 181 176 175 176 185 186 182 184 188 200 202 206 196 215 236 234 225 215 234 231 225 249 270 290 299 305 323 329 323 316 299 291 289
204 244 141 162 160 153 178 195 202 180 171 231 218 186 231 259 236 180 210 297 289 286 268 250 170 267 185 237 65 294 290 278 268 191 211 211 207 206 199 194 189 185 182 180 180 180 181 180 183 184 184 183 179 179 177 178 183 190 182 173 178 187 196 210 208 206 243 230 229 214 204 217 218 220 236 252 277 291 300 307 318 320 313 305 300 296
207 232 214 153 142 159 200 189 220 190 188 190 211 204 187 219 8 301 175 252 282 291 298 306 277 272 89 100 210 255 270 265 244 215 209 216 210 204 199 192 186 186 183 183 184 182 181 182 184 185 184 182 176 176 182 185 188 196 180 178 185 189 208 214 218 229 236 242 225 226 226 226 218 229 236 250 261 275 284 281 288 305 316 311 303 300
220 178 225 147 187 201 211 192 253 275 199 194 206 214 202 189 195 228 223 178 234 246 268 259 267 289 108 154 157 257 239 229 215 242 216 209 207 196 192 191 187 188 187 187 189 185 182 180 181 185 185 181 177 183 189 184 184 193 190 194 200 216 216 225 217 225 236 234 237 237 230 231 234 241 248 255 266 268 269 275 280 291 305 299 300 295
224 172 229 181 198 209 128 92 29 331 301 246 217 221 204 214 224 226 267 169 206 232 278 276 295 279 111 145 179 239 269 235 267 252 240 211 202 194 192 191 187 188 187 189 190 187 181 179 181 183 183 180 177 183 182 181 187 189 193 205 209 220 230 241 229 217 225 235 234 229 228 229 235 237 243 255 265 272 284 287 304 294 292 299 301 297
161 212 211 230 108 88 111 121 123 88 245 213 214 255 236 226 219 240 251 141 242 145 234 222 249 282 115 81 142 136 238 276 261 263 269 238 201 189 189 191 186 187 192 192 190 186 179 175 176 172 171 168 172 178 179 181 188 189 198 205 215 218 225 234 237 229 220 227 233 231 231 230 233 241 252 259 265 270 282 290 286 302 294 295 299 296
214 194 231 193 188 200 169 171 176 170 215 228 227 214 232 246 244 231 72 143 251 224 250 274 277 291 107 170 172 151 211 221 221 229 232 255 223 201 189 190 185 184 184 185 184 181 175 172 170 168 167 167 167 173 176 177 181 184 192 208 224 227 212 219 230 235 242 241 240 230 230 236 238 240 243 255 268 280 286 312 333 325 310 302 297 293
221 172 201 214 209 202 202 205 205 190 208 219 232 223 210 221 208 207 226 198 239 236 232 251 265 283 125 181 171 180 195 215 240 259 237 217 241 233 195 191 186 183 183 181 177 175 177 174 168 160 162 166 170 175 176 175 178 182 190 206 224 226 221 221 229 236 242 248 241 238 240 242 244 248 253 259 270 281 298 299 289 296 298 311 304 298
226 196 203 222 224 220 222 226 202 218 199 214 206 210 202 213 219 220 246 236 237 157 222 218 248 284 268 206 181 220 227 245 253 235 232 229 210 211 208 195 192 191 184 181 177 176 173 170 167 161 163 169 174 176 174 177 179 184 188 202 214 220 216 216 228 235 244 248 256 245 247 248 245 251 260 263 270 283 288 294 309 315 316 307 304 301
179 212 207 220 233 243 256 140 190 217 227 213 217 212 213 208 209 217 222 237 176 190 250 201 202 251 268 279 301 298 285 283 276 284 278 241 219 208 199 199 197 192 187 180 179 178 179 173 166 163 165 170 172 172 174 177 179 181 188 201 209 210 213 216 221 229 233 243 247 248 251 252 251 254 256 266 276 280 283 291 305 309 305 302 297 299
210 223 203 217 221 222 226 230 197 221 235 233 226 213 204 201 204 218 219 226 194 250 268 75 196 238 267 285 301 299 295 284 279 286 293 298 257 216 205 201 198 198 189 187 186 184 180 175 170 165 165 169 169 171 171 173 176 181 192 206 206 213 213 216 220 224 234 237 241 245 252 251 250 250 257 261 268 277 282 294 302 293 290 295 297 295
228 232 176 219 224 208 192 213 204 231 223 230 232 214 205 200 203 214 222 226 230 250 267 254 182 259 279 292 298 297 295 286 290 293 283 264 253 233 213 207 205 197 193 192 189 188 184 176 168 166 162 166 170 168 171 169 172 182 197 204 205 210 214 214 217 224 231 238 240 247 251 249 243 250 261 270 277 285 288 303 299 290 295 300 300 297
240 152 211 201 214 197 181 180 199 222 214 223 216 204 199 199 206 210 234 209 223 245 255 270 272 274 282 288 276 282 281 284 272 269 270 274 271 245 228 218 210 204 200 196 189 187 184 178 171 165 162 167 169 168 169 172 179 191 211 211 213 208 213 215 216 222 229 233 240 248 252 247 245 251 260 269 275 278 291 303 295 294 302 302 298 299
214 177 200 194 222 192 178 193 185 202 211 204 192 193 190 194 204 197 225 195 220 235 239 255 265 270 270 278 262 283 287 270 262 257 258 268 273 261 245 236 224 213 204 195 191 188 183 180 175 169 166 168 166 167 174 175 186 198 210 210 216 219 212 215 218 223 226 233 239 246 249 248 251 256 268 275 275 279 290 295 293 301 302 298 295 297
203 178 192 196 224 203 157 199 182 187 204 210 200 194 195 198 224 210 222 203 228 248 247 247 260 275 343 328 292 292 289 284 275 267 269 273 274 267 255 242 233 219 208 197 191 188 185 182 177 171 167 166 169 171 173 178 194 202 205 208 210 216 221 215 219 222 229 234 240 244 250 253 258 264 270 274 279 286 289 299 296 302 304 303 305 302
204 210 221 196 238 180 160 189 191 210 225 230 215 219 206 219 212 222 224 217 219 211 251 278 291 307 294 285 276 278 285 295 300 291 272 269 267 252 249 245 239 226 211 202 194 190 188 183 174 166 163 163 167 176 181 195 198 202 203 208 207 215 219 219 220 226 228 235 241 245 252 254 261 266 270 274 281 283 287 298 299 308 310 304 299 296
210 213 232 189 239 211 158 173 216 231 242 91 111 73 172 223 219 234 242 216 210 210 239 256 260 267 274 275 277 280 292 301 288 274 260 239 234 245 246 242 231 222 211 203 199 194 187 181 163 159 159 164 174 176 187 193 198 200 204 207 211 213 215 215 223 223 228 237 240 246 251 260 264 269 273 277 276 274 277 290 293 298 305 312 311 304
212 216 196 215 226 173 197 212 232 242 99 130 100 107 80 115 195 218 239 226 239 242 236 249 265 272 276 275 281 298 286 292 289 265 246 238 228 232 240 234 221 216 211 205 196 192 179 168 158 157 154 158 166 182 191 196 202 206 207 206 213 213 214 216 220 224 226 235 242 248 255 262 268 273 274 271 268 267 277 286 293 301 304 300 305 309
259 233 218 231 175 229 222 227 235 88 157 127 150 177 183 194 184 212 246 243 228 224 243 265 265 266 268 273 272 260 274 283 269 246 201 221 216 230 233 231 213 205 202 197 191 184 171 160 159 146 140 151 172 186 192 199 202 205 209 209 213 215 215 217 219 223 226 238 245 253 259 262 272 279 277 279 274 272 278 286 292 294 302 301 304 304
225 239 203 228 206 232 239 237 239 244 251 229 212 207 200 205 213 226 282 257 226 248 263 266 253 256 259 247 212 205 210 253 256 174 143 172 181 200 212 214 195 182 185 181 176 167 161 158 153 141 155 170 182 189 197 201 202 202 207 213 214 217 217 218 220 219 230 240 248 255 258 261 271 277 278 271 271 272 281 283 298 300 310 318 315 306
204 222 251 221 216 219 235 242 237 247 240 263 207 169 153 143 153 104 234 260 236 247 214 255 247 239 251 249 192 181 226 252 261 125 148 152 164 172 174 178 169 158 169 172 173 165 158 159 154 154 167 177 186 193 198 199 201 202 206 212 219 223 219 219 218 221 231 238 252 257 258 266 269 272 272 268 270 273 280 298 312 309 309 315 305 331
202 203 213 226 233 225 242 238 246 240 264 137 108 132 139 143 106 205 259 273 102 184 190 218 249 253 242 226 197 206 231 251 320 83 145 155 147 146 156 156 151 146 161 158 162 156 154 149 150 167 178 185 196 198 198 195 199 205 210 212 218 223 218 218 217 219 230 245 253 254 264 264 266 264 269 272 267 286 21 139 261 284 292 295 292 312
201 211 216 234 230 222 223 248 250 236 89 91 109 129 132 137 193 252 251 275 60 22 227 268 262 260 240 210 201 239 221 303 98 147 145 137 134 135 138 139 142 149 153 160 153 158 154 162 166 172 182 192 201 204 200 196 198 205 209 215 219 222 219 216 219 223 236 243 241 250 251 253 255 263 267 293 300 223 196 210 264 258 246 255 265 269
214 223 221 234 240 231 229 238 240 256 88 76 108 145 137 186 233 261 7 1 308 273 153 260 286 280 256 224 216 240 224 128 152 152 145 138 133 132 140 140 144 149 153 152 144 155 163 176 178 186 197 198 206 205 194 191 192 198 205 214 220 216 217 217 228 232 227 209 211 241 259 266 268 266 266 253 244 238 175 205 240 250 258 254 244 252
206 226 219 223 232 245 238 243 235 242 90 321 115 156 113 256 298 33 348 308 36 341 328 292 267 274 257 238 224 242 229 169 162 152 142 138 142 147 145 142 144 155 155 153 163 175 174 177 188 198 209 211 211 192 182 189 196 198 201 216 221 222 218 217 210 185 169 170 202 229 254 263 264 267 258 227 223 228 238 214 239 252 252 255 255 261
120 235 233 237 222 252 226 232 266 40 93 64 301 296 163 309 12 342 333 306 334 325 313 296 284 284 273 259 231 204 199 156 155 144 138 144 147 145 141 138 139 147 159 182 174 176 188 189 197 203 213 222 183 175 181 191 198 203 210 221 220 213 199 180 163 148 156 190 211 235 261 265 267 258 249 247 236 219 230 235 252 261 254 248 267 274
104 345 357 261 137 254 295 311 95 142 7 344 315 337 324 327 319 319 303 299 300 293 290 282 287 278 256 253 232 199 188 186 171 166 149 147 149 151 146 151 150 152 161 181 178 171 190 199 197 203 186 152 145 171 181 193 205 205 215 220 217 196 176 156 145 147 173 207 220 234 250 258 268 269 263 250 226 223 229 248 255 256 248 261 273 275
59 349 284 286 192 165 135 50 26 75 30 12 93 22 342 340 341 329 313 300 281 276 273 274 280 279 243 221 224 192 193 173 160 155 142 138 140 137 137 137 138 136 137 129 115 137 171 180 189 187 178 174 199 177 197 211 220 223 223 221 200 183 171 155 153 166 190 210 217 215 215 246 249 287 312 274 249 238 241 254 253 252 247 263 276 275
79 9 250 242 94 258 219 161 354 13 26 72 60 44 6 360 345 337 311 290 287 289 287 274 270 266 246 214 215 192 179 170 155 136 136 138 137 141 143 142 138 137 130 120 110 116 129 166 207 219 230 232 205 224 225 228 233 244 251 236 198 175 159 159 162 173 184 204 170 144 123 101 345 331 282 247 249 253 256 257 252 252 254 268 271 273
179 359 288 195 147 239 5 81 9 320 78 97 50 25 12 357 341 333 318 293 284 286 286 284 261 241 214 204 199 186 171 168 154 140 146 141 136 136 131 130 122 110 102 104 115 127 139 181 229 241 252 276 217 212 276 264 247 236 241 214 208 164 150 159 170 179 190 179 156 154 140 154 144 237 269 264 280 289 284 249 239 275 281 277 273 273
5 220 252 133 238 68 164 146 356 302 207 152 41 22 5 347 336 327 324 311 291 278 269 259 246 229 209 192 185 185 167 151 150 160 162 141 137 133 127 120 117 117 123 129 130 146 129 122 80 58 56 68 64 37 352 299 291 279 141 215 204 146 158 157 142 126 112 128 166 164 192 242 223 237 245 271 257 262 276 308 299 292 284 359 350 360
216 226 42 242 233 231 247 23 3 299 250 275 352 355 345 339 335 328 321 314 304 291 273 244 222 207 194 166 172 169 137 115 142 183 177 151 141 129 123 121 123 121 117 114 118 107 95 81 75 81 88 96 87 93 118 122 153 240 237 182 133 152 139 122 113 125 233 191 199 224 216 222 268 268 276 286 286 275 100 74 52 19 313 79 55 42
254 3 284 271 273 327 36 49 47 323 292 301 324 332 329 332 339 338 332 319 310 295 274 250 192 160 160 157 175 148 135 142 153 186 185 137 123 111 110 120 125 121 115 120 111 99 90 91 94 102 103 93 98 115 116 135 143 164 144 112 142 145 139 144 146 163 262 228 240 294 303 294 291 272 247 264 275 272 276 192 75 39 34 48 69 51